Location: Sternwarte_Laufen
(47.9344°N, 12.9346°E)
Time: 00:40:45
(UTC+02:00)

ISS - Pass Details

Date: 22 May 2017
Orbit: 402 x 408 km, 51.6° (Epoch: 27 May)

Event Time Altitude Azimuth Distance (km) Brightness Sun altitude
Rises 03:40:40 0° 291° (WNW) 2,331 -0.1 -13.3°
Reaches altitude 10° 03:42:46 10° 295° (WNW) 1,468 -1.1 -13.1°
Maximum altitude 03:46:02 61° 17° (NNE) 464 -3.3 -12.7°
Drops below altitude 10° 03:49:17 10° 99° (E) 1,460 -0.6 -12.4°
Sets 03:51:22 0° 103° (ESE) 2,316 0.4 -12.2°
